Waarnemingen

Advertentie
Mijn weer
Luxeuil, Frankrijk (7292): temperatuur & dauwpunt: 13.04.2019 06:00:00 - 19.04.2019 06:00:00 (CEST)Luxeuil, Frankrijk (7292): temperatuur 5cm: 13.04.2019 06:00:00 - 19.04.2019 06:00:00 (CEST)Luxeuil, Frankrijk (7292): temperatuur -20cm & temperatuur -100cm: 13.04.2019 06:00:00 - 19.04.2019 06:00:00 (CEST)Luxeuil, Frankrijk (7292): windsnelheid & windstoten: 13.04.2019 06:00:00 - 19.04.2019 06:00:00 (CEST)Luxeuil, Frankrijk (7292): windrichting: 13.04.2019 06:00:00 - 19.04.2019 06:00:00 (CEST)Luxeuil, Frankrijk (7292): luchtdruk: 13.04.2019 06:00:00 - 19.04.2019 06:00:00 (CEST)Luxeuil, Frankrijk (7292): zicht: 13.04.2019 06:00:00 - 19.04.2019 06:00:00 (CEST)Luxeuil, Frankrijk (7292): Zonneschijnduur: 13.04.2019 06:00:00 - 19.04.2019 06:00:00 (CEST)Luxeuil, Frankrijk (7292): neerslag: 13.04.2019 06:00:00 - 19.04.2019 06:00:00 (CEST)
Datum & Tijd tt [°C] td [°C] tt 5cm [°C] tt -20cm [°C] tt -100cm [°C] ff [km/u] ff [kn] fx [km/u] fx [kn] dd ppp [hPa] vv [km] sd [min] rr [mm]
19.04.2019 06:00:00 6,9 4,6 4,1 13,0 9,9 6 3 9 5 ZO 1024,6 27 0 0,0
19.04.2019 05:00:00 6,3 4,8 4,0 13,2 9,9 4 2 9 5 ONO 1024,5 22 0 0,0
19.04.2019 04:00:00 9,0 5,4 6,0 13,4 9,9 4 2 9 5 Z 1023,5 18 0 0,0
19.04.2019 03:00:00 6,9 4,2 6,3 13,6 9,9 5 3 8 4 W 1023,5 20 0 0,0
19.04.2019 02:00:00 9,6 4,8 6,9 13,7 9,9 2 1 5 3 Z 1022,7 43 0 0,0
19.04.2019 01:00:00 9,7 5,1 7,0 13,8 9,8 6 4 9 5 OZO 1022,5 51 0 0,0
19.04.2019 00:00:00 9,5 5,9 7,4 13,9 9,8 3 2 6 4 O 1022,2 35 0 0,0
18.04.2019 23:00:00 10,8 5,7 7,9 14,0 9,8 4 2 10 6 ZO 1021,8 24 0 0,0
18.04.2019 22:00:00 15,2 4,0 12,7 13,9 9,9 6 4 9 5 O 1020,9 60 0 0,0
18.04.2019 21:00:00 16,6 3,6 13,8 13,9 9,8 7 4 16 8 O 1020,3 60 4 0,0
18.04.2019 20:00:00 18,3 4,8 18,1 13,5 9,8 12 7 21 11 ZO 1019,6 60 23 0,0
18.04.2019 19:00:00 21,0 4,9 22,1 13,1 9,8 13 7 22 12 ZZO 1018,8 60 48 0,0
18.04.2019 18:00:00 22,6 4,1 26,4 12,7 9,8 11 6 20 11 ZZO 1018,3 18 60 0,0
18.04.2019 17:00:00 22,9 4,4 27,8 12,3 9,8 12 6 23 12 ZZW 1018,2 59 60 0,0
18.04.2019 16:00:00 23,0 4,0 27,7 11,8 9,7 8 4 23 12 Z 1018,3 45 60 0,0
18.04.2019 15:00:00 22,7 4,7 27,3 11,4 9,8 13 7 23 13 Z 1018,5 17 60 0,0
18.04.2019 14:00:00 21,9 5,7 26,6 11,2 9,7 10 5 21 11 ZZW 1018,8 59 60 0,0
18.04.2019 13:00:00 20,7 5,5 24,8 11,0 9,8 9 5 19 10 ZZW 1019,4 47 60 0,0
18.04.2019 12:00:00 19,0 4,7 22,9 11,0 9,7 6 3 18 10 Z 1020,1 20 60 0,0
18.04.2019 11:00:00 17,9 4,8 19,7 11,0 9,8 9 5 16 9 Z 1020,6 20 60 0,0
18.04.2019 10:00:00 15,6 6,3 15,4 11,1 9,7 6 4 16 9 ZZO 1020,9 46 60 0,0
18.04.2019 09:00:00 11,6 8,1 11,0 11,3 9,7 10 5 16 9 O 1021,4 32 60 0,0
18.04.2019 08:00:00 8,0 6,3 5,9 11,5 9,7 8 4 11 6 ONO 1021,7 20 47 0,0
18.04.2019 07:00:00 5,9 5,3 3,1 11,7 9,7 5 3 9 5 ZO 1021,6 15 0 0,0
18.04.2019 06:00:00 4,7 3,7 3,4 11,9 9,7 4 2 13 7 O 1021,4 25 0 0,0
18.04.2019 05:00:00 4,2 3,8 2,1 12,1 9,7 5 3 12 7 NNO 1021,3 4,0 0 0,0
18.04.2019 04:00:00 6,2 4,5 4,6 12,3 9,7 0 0 3 2 N 1020,9 0,8 0 0,0
18.04.2019 03:00:00 8,4 6,0 7,2 12,4 9,7 0 0 4 2 N 1020,4 30 0 0,0
18.04.2019 02:00:00 7,9 6,4 4,8 12,6 9,7 4 2 7 4 ONO 1020,2 60 0 0,0
18.04.2019 01:00:00 6,7 5,8 4,8 12,7 9,7 3 1 7 4 OZO 1020,2 17 0 0,0
18.04.2019 00:00:00 8,0 6,9 5,6 12,8 9,7 4 2 7 4 ZO 1020,1 50 0 0,0
17.04.2019 23:00:00 9,6 7,2 7,5 12,7 9,7 5 3 7 4 ZO 1020,0 40 0 0,0
17.04.2019 22:00:00 12,6 6,8 9,1 12,7 9,7 0 0 5 3 N 1019,5 60 0 0,0
17.04.2019 21:00:00 15,0 6,8 11,1 12,5 9,7 4 2 16 9 ONO 1018,6 60 0 0,0
17.04.2019 20:00:00 16,1 7,0 15,7 12,2 9,7 11 6 19 10 ZO 1018,2 60 28 0,0
17.04.2019 19:00:00 19,3 6,4 22,6 11,8 9,7 6 3 21 11 ONO 1017,6 60 60 0,0
17.04.2019 18:00:00 19,9 4,0 20,1 11,4 9,7 5 3 15 8 N 1017,7 60 49 0,0
17.04.2019 17:00:00 19,1 5,2 20,5 11,0 9,6 5 3 18 10 Z 1018,2 19 37 0,0
17.04.2019 16:00:00 19,3 5,4 22,6 10,6 9,7 5 3 19 10 ZZO 1018,4 60 53 0,0
17.04.2019 15:00:00 18,7 6,8 20,1 10,3 9,7 9 5 18 10 O 1018,9 59 51 0,0
17.04.2019 14:00:00 18,1 8,4 19,5 10,0 9,7 5 3 21 11 NNO 1019,5 45 38 0,0
17.04.2019 13:00:00 16,4 8,4 18,1 9,8 9,7 11 6 19 11 Z 1020,0 20 38 0,0
17.04.2019 12:00:00 15,0 8,0 15,2 9,7 9,7 9 5 22 12 ZZO 1020,7 41 38 0,0
17.04.2019 11:00:00 13,4 8,9 14,8 9,7 9,6 8 5 16 9 ZO 1021,2 51 32 0,0
17.04.2019 10:00:00 13,1 9,9 13,0 9,7 9,7 5 3 11 6 OZO 1021,4 42 36 0,2
17.04.2019 09:00:00 10,8 9,2 10,7 9,7 9,7 5 3 9 5 ZZO 1021,5 17 29 0,0
17.04.2019 08:00:00 9,7 9,4 8,8 9,8 9,7 3 2 7 4 N 1021,5 9 10 0,0
17.04.2019 07:00:00 8,8 8,7 8,5 9,8 9,7 6 3 10 5 OZO 1021,2 7 0 0,0
17.04.2019 06:00:00 8,8 8,5 7,8 9,8 9,7 6 3 10 5 O 1020,9 8 0 0,0
17.04.2019 05:00:00 9,0 8,7 8,7 9,8 9,7 5 3 10 6 O 1020,7 8 0 0,0
17.04.2019 04:00:00 9,4 9,1 9,1 9,8 9,7 6 4 12 6 OZO 1020,9 15 0 0,0
17.04.2019 03:00:00 9,5 9,2 9,2 9,8 9,6 6 4 11 6 OZO 1020,9 12 0 0,0
17.04.2019 02:00:00 9,5 9,2 9,2 9,8 9,7 4 2 10 6 O 1021,0 12 0 0,0
17.04.2019 01:00:00 9,7 9,4 9,4 9,8 9,7 4 2 8 4 W 1020,9 7 0 0,4
17.04.2019 00:00:00 9,7 9,4 9,5 9,8 9,7 3 2 11 6 ZO 1020,7 4,7 0 0,6
16.04.2019 23:00:00 9,8 9,5 9,5 9,8 9,7 5 3 12 7 O 1020,5 3,6 0 0,8
16.04.2019 22:00:00 9,7 9,4 9,5 9,8 9,6 7 4 12 6 OZO 1020,3 5 0 1,0
16.04.2019 21:00:00 9,8 9,5 9,5 9,8 9,7 8 4 16 8 Z 1020,0 3,1 0 0,6
16.04.2019 20:00:00 9,9 9,4 9,6 9,7 9,7 9 5 14 8 ZO 1019,4 4,5 0 0,8
16.04.2019 19:00:00 10,3 9,1 9,9 9,7 9,7 5 3 12 6 ZZO 1019,1 2,9 0 0,6
16.04.2019 18:00:00 10,9 8,5 9,8 9,7 9,7 9 5 24 13 ZZW 1018,6 15 0 0,6
16.04.2019 17:00:00 11,7 8,2 11,1 9,5 9,7 15 8 25 13 ZZW 1018,1 41 0 0,0
16.04.2019 16:00:00 12,4 7,3 10,6 9,4 9,6 7 4 27 15 Z 1018,0 59 0 0,2
16.04.2019 15:00:00 13,1 5,7 12,7 9,3 9,6 21 11 35 19 ZW 1018,0 35 0 0,0
16.04.2019 14:00:00 13,5 5,6 14,1 9,2 9,7 16 9 26 14 ZW 1017,9 58 0 0,0
16.04.2019 13:00:00 12,6 6,0 12,7 9,1 9,6 18 10 29 16 ZZW 1018,4 44 0 0,0
16.04.2019 12:00:00 12,7 5,6 11,6 9,1 9,6 16 9 30 16 ZW 1018,4 59 0 0,0
16.04.2019 11:00:00 12,3 5,0 12,9 9,2 9,7 24 13 42 23 WZW 1018,2 59 0 0,0
16.04.2019 10:00:00 11,8 4,0 9,7 9,3 9,7 6 4 15 8 ZZO 1017,6 44 0 0,0
16.04.2019 09:00:00 8,8 4,8 7,3 9,3 9,6 10 5 18 10 OZO 1017,6 16 0 0,0
16.04.2019 08:00:00 7,0 4,0 5,4 9,4 9,6 11 6 16 9 O 1017,5 12 0 0,0
16.04.2019 07:00:00 6,2 3,0 4,7 9,6 9,7 8 4 19 10 ONO 1017,2 15 0 0,0
16.04.2019 06:00:00 5,6 3,4 5,0 9,7 9,7 10 6 15 8 O 1016,8 14 0 0,0
16.04.2019 05:00:00 5,9 3,4 4,4 9,8 9,7 5 3 9 5 O 1017,4 19 0 0,0
16.04.2019 04:00:00 6,0 3,0 5,0 9,9 9,7 2 1 11 6 NNO 1017,0 16 0 0,0
16.04.2019 03:00:00 6,2 2,8 5,1 10,0 9,7 8 5 15 8 O 1016,9 13 0 0,0
16.04.2019 02:00:00 7,5 3,4 5,5 10,1 9,7 6 3 15 8 NO 1016,9 15 0 0,0
16.04.2019 01:00:00 7,0 2,9 4,4 10,2 9,7 7 4 16 8 O 1016,7 13 0 0,0
16.04.2019 00:00:00 6,6 2,7 4,6 10,2 9,7 2 1 6 3 NNW 1016,1 8 0 0,0
15.04.2019 23:00:00 8,8 2,8 6,4 10,2 9,7 2 1 14 8 ONO 1015,5 19 0 0,0
15.04.2019 22:00:00 10,9 3,2 8,2 10,1 9,7 11 6 15 8 O 1015,6 23 0 0,0
15.04.2019 21:00:00 10,6 3,8 8,7 9,9 9,7 13 7 22 12 ZO 1015,9 19 0 0,0
15.04.2019 20:00:00 13,1 3,5 12,8 9,7 9,7 18 10 29 16 ZZO 1015,4 25 60 0,0
15.04.2019 19:00:00 14,6 2,8 16,1 9,3 9,7 23 12 34 18 ZO 1015,3 20 60 0,0
15.04.2019 18:00:00 15,5 2,6 18,8 8,9 9,7 22 12 36 20 ZZO 1015,7 25 60 0,0
15.04.2019 17:00:00 15,7 2,5 19,7 8,5 9,7 24 13 38 20 ZZO 1016,2 19 60 0,0
15.04.2019 16:00:00 15,2 2,4 19,6 8,0 9,7 27 15 45 25 ZZO 1016,9 18 60 0,0
15.04.2019 15:00:00 15,2 2,7 18,6 7,7 9,7 29 16 52 28 ZZO 1017,8 17 60 0,0
15.04.2019 14:00:00 13,9 1,8 17,8 7,3 9,7 29 16 45 24 ZZO 1018,7 16 60 0,0
15.04.2019 13:00:00 13,6 3,1 17,5 7,2 9,7 23 13 34 19 ZZO 1019,1 15 60 0,0
15.04.2019 12:00:00 11,4 1,6 16,2 7,1 9,7 7 4 23 12 NNO 1020,1 18 60 0,0
15.04.2019 11:00:00 8,8 1,9 12,5 7,1 9,7 4 2 14 8 ZZW 1021,3 16 60 0,0
15.04.2019 10:00:00 6,6 1,7 7,9 7,3 9,7 4 2 11 6 ZW 1022,0 9 60 0,0
15.04.2019 09:00:00 3,1 0,8 1,2 7,5 9,7 0 0 6 4 N 1022,8 6 60 0,0
15.04.2019 08:00:00 -1,5 -2,3 -4,7 7,6 9,8 3 1 9 5 Z 1023,8 0,2 51 0,0
15.04.2019 07:00:00 -2,9 -3,7 -5,7 7,8 9,7 3 2 6 4 N 1023,7 0,1 0 0,0
15.04.2019 06:00:00 -2,7 -3,4 -5,3 7,9 9,7 0 0 8 4 N 1023,5 0,2 0 0,0
15.04.2019 05:00:00 -2,7 -3,1 -4,4 8,1 9,8 5 3 8 4 OZO 1023,5 0,2 0 0,0
15.04.2019 04:00:00 -1,6 -2,0 -4,5 8,2 9,7 0 0 3 2 N 1023,6 3,3 0 0,0
15.04.2019 03:00:00 -1,0 -1,8 -2,9 8,3 9,7 0 0 7 4 N 1023,8 7 0 0,0
15.04.2019 02:00:00 -0,7 -1,5 -2,9 8,5 9,7 3 2 6 4 NO 1024,1 6 0 0,0
15.04.2019 01:00:00 -0,3 -1,7 -2,4 8,5 9,8 4 2 5 3 NO 1023,9 8 0 0,0
15.04.2019 00:00:00 1,2 -0,9 -1,5 8,6 9,8 2 1 8 5 WNW 1023,6 12 0 0,0
14.04.2019 23:00:00 3,0 -0,1 -0,1 8,6 9,8 5 3 9 5 NW 1023,0 11 0 0,0
14.04.2019 22:00:00 4,0 0,9 2,3 8,6 9,8 10 5 11 6 OZO 1022,9 13 0 0,0
14.04.2019 21:00:00 5,4 1,1 2,4 8,5 9,8 5 3 14 8 ZZO 1023,1 15 0 0,0
14.04.2019 20:00:00 7,7 -0,1 7,6 8,4 9,8 9 5 18 10 ONO 1022,0 27 20 0,0
14.04.2019 19:00:00 8,0 0,0 8,5 8,3 9,8 11 6 21 12 NO 1021,3 20 11 0,0
14.04.2019 18:00:00 7,6 0,1 8,1 8,2 9,8 13 7 24 13 O 1020,9 32 0 0,0
14.04.2019 17:00:00 7,6 -1,1 8,1 8,0 9,8 10 5 21 11 NNO 1020,7 15 0 0,0
14.04.2019 16:00:00 7,9 -1,1 9,6 7,9 9,7 10 6 27 15 NO 1020,6 19 5 0,0
14.04.2019 15:00:00 7,0 -1,9 9,2 7,7 9,8 13 7 26 14 NNW 1020,8 19 0 0,0
14.04.2019 14:00:00 7,3 -1,9 8,2 7,6 9,8 9 5 29 16 N 1020,5 17 0 0,0
14.04.2019 13:00:00 6,8 -1,9 7,5 7,5 9,8 13 7 24 13 NW 1020,3 15 1 0,0
14.04.2019 12:00:00 5,4 -0,9 7,6 7,5 9,8 14 7 23 12 NW 1020,7 14 30 0,0
14.04.2019 11:00:00 5,6 -1,1 10,2 7,5 9,7 8 4 19 10 WNW 1020,5 15 58 0,0
14.04.2019 10:00:00 3,2 -0,8 4,8 7,7 9,7 9 5 19 11 WNW 1020,7 12 60 0,0
14.04.2019 09:00:00 0,0 -1,4 0,6 7,9 9,8 5 3 8 4 W 1021,1 6 60 0,0
14.04.2019 08:00:00 -2,4 -3,4 -6,3 8,1 9,8 4 2 5 3 NNW 1021,5 7 41 0,0
14.04.2019 07:00:00 -4,0 -4,5 -6,9 8,3 9,8 3 2 5 3 OZO 1021,4 4,5 0 0,0
14.04.2019 06:00:00 -3,9 -4,4 -7,5 8,5 9,8 2 1 8 4 NNO 1021,2 5 0 0,0
14.04.2019 05:00:00 -3,8 -4,6 -6,7 8,7 9,8 0 0 17 9 N 1021,2 8 0 0,0
14.04.2019 04:00:00 -1,8 -3,2 -4,9 8,9 9,7 4 2 10 5 NW 1020,7 12 0 0,0
14.04.2019 03:00:00 -2,7 -4,0 -6,6 9,1 9,8 3 2 8 5 ZW 1020,9 11 0 0,0
14.04.2019 02:00:00 -2,1 -3,8 -4,9 9,2 9,7 2 1 10 5 ZZW 1021,1 14 0 0,0
14.04.2019 01:00:00 -2,8 -5,1 -5,1 9,4 9,8 5 3 12 7 WNW 1021,8 10 0 0,0
14.04.2019 00:00:00 -0,5 -3,5 -4,1 9,6 9,8 3 2 14 7 NW 1021,7 13 0 0,0
13.04.2019 23:00:00 -0,9 -3,8 -4,2 9,7 9,8 4 2 5 3 NW 1021,8 14 0 0,0
13.04.2019 22:00:00 2,5 -3,6 -2,1 9,7 9,8 4 2 9 5 NNW 1021,7 17 0 0,0
13.04.2019 21:00:00 3,8 -3,5 2,4 9,7 9,7 8 4 18 10 NNO 1021,4 24 0 0,0
13.04.2019 20:00:00 5,0 -4,1 4,6 9,7 9,7 9 5 22 12 NNO 1020,7 28 22 0,0
13.04.2019 19:00:00 5,7 -4,5 6,9 9,6 9,7 14 7 36 19 NNO 1020,7 31 11 0,0
13.04.2019 18:00:00 6,7 -4,1 8,1 9,5 9,7 19 10 32 17 N 1020,4 20 10 0,0
13.04.2019 17:00:00 6,7 -2,5 8,5 9,5 9,7 18 10 33 18 N 1020,3 19 0 0,0
13.04.2019 16:00:00 7,1 -1,8 8,4 9,4 9,7 18 10 37 20 N 1020,0 18 0 0,0
13.04.2019 15:00:00 7,3 -2,5 9,2 9,2 9,7 17 9 32 17 N 1020,2 20 0 0,0
13.04.2019 14:00:00 7,6 -2,4 10,0 9,2 9,7 16 9 31 17 N 1019,6 19 4 0,0
13.04.2019 13:00:00 8,0 -1,8 9,6 9,1 9,7 18 10 33 18 N 1019,7 16 0 0,0
13.04.2019 12:00:00 7,2 -1,8 10,3 9,1 9,7 12 6 30 16 N 1020,0 16 7 0,0
13.04.2019 11:00:00 6,9 -0,6 9,1 9,2 9,7 12 6 24 13 N 1020,2 15 60 0,0
13.04.2019 10:00:00 5,0 -1,3 6,7 9,3 9,7 15 8 26 14 N 1020,5 18 40 0,0
13.04.2019 09:00:00 3,9 -0,7 1,6 9,4 9,7 7 4 16 9 NNW 1020,6 15 12 0,0
13.04.2019 08:00:00 0,9 -1,2 -0,5 9,6 9,7 7 4 11 6 W 1020,8 9 0 0,0
13.04.2019 07:00:00 1,0 -1,1 -0,1 9,7 9,7 7 4 9 5 W 1020,4 9 0 0,0
13.04.2019 06:00:00 2,2 -0,6 0,0 9,9 9,7 6 3 7 4 WZW 1020,0 13 0 0,0

tt = temperatuur
td = dauwpunt
tt 5cm = temperatuur 5cm
tt -20cm = temperatuur -20cm
tt -100cm = temperatuur -100cm
ff = windsnelheid
fx = windstoten
dd = windrichting
ppp = luchtdruk
vv = zicht
sd = Zonneschijnduur
rr = neerslag

Weerstations in de omgeving